Regional Weather Roundup
Issued by NWS

Home | Current Version | Previous Version | Text Only | Print | Product List | Glossary On
Versions: 1 2 3 4 5 6 7 8 9 10 11 12 13 14 15 16 17 18 19 20 21 22 23 24 25 26 27 28 29 30 31 32 33 34 35 36 37 38 39 40 41 42 43 44 45 46 47 48 49 50
017
ASUS43 KDMX 231506
RWRIA

WEATHER ROUNDUP FOR IOWA
NATIONAL WEATHER SERVICE DES MOINES IA
1000 AM CDT WED MAY 23 2018

NOTE: "FAIR" INDICATES FEW OR NO CLOUDS BELOW 12,000 FEET WITH NO
SIGNIFICANT WEATHER AND/OR OBSTRUCTIONS TO VISIBILITY.

* - THESE STATIONS ARE NOT NWS STATIONS...THUS NOT UNDER NWS
QUALITY CONTROL.  THEY ALSO DO NOT REPORT WEATHER SUCH
AS PRECIPITATION OR FOG.

IAZ001>003-012>014-020>022-031>034-043>046-231600-
   NORTHWEST IOWA

CITY           SKY/WX    TMP DP  RH WIND       PRES   REMARKS
CARROLL *      MOSUNNY  N/A N/A N/A E10       30.11S
CHEROKEE *     SUNNY     72  65  77 SE14G22   30.09S
DENISON *      SUNNY     79  68  69 S9        30.09S HX  81
LE MARS *      MOSUNNY   73  66  78 E18G28    30.05R
ORANGE CITY *  MOSUNNY   73  64  73 SE15G23   30.07R
SHELDON *      MOSUNNY   72  64  78 SE25G33   30.06R
SIOUX CITY     SUNNY     77  69  76 SE9       30.02F
SPENCER        CLOUDY    72  60  66 SE18G29   30.10S
STORM LAKE *   SUNNY     72  63  73 SE18G24   30.11S
$$

IAZ055>058-069>071-079>083-090>094-231600-
   SOUTHWEST IOWA

CITY           SKY/WX    TMP DP  RH WIND       PRES   REMARKS
ATLANTIC *     SUNNY     79  68  69 S12       30.09S HX  81
AUDUBON *      SUNNY     79  70  73 S9        30.11S HX  81
CLARINDA *     SUNNY     81  66  61 S9        30.12S HX  83
COUNCIL BLFS * SUNNY     79  75  89 S12       30.07F HX  82
CRESTON *      SUNNY     79  64  61 S15       30.14R HX  81
HARLAN  *      SUNNY     79  68  69 S12G21    30.11S HX  81
LAMONI         SUNNY     76  65  68 S9        30.13R
RED OAK *      SUNNY     81  68  65 S12       30.09S HX  83
SHENANDOAH *   SUNNY     82  68  61 S12       30.09S HX  85
$$

IAZ047>049-059>061-072>074-084-231600-
   CENTRAL IOWA

CITY           SKY/WX    TMP DP  RH WIND       PRES   REMARKS
AMES           CLOUDY    73  64  73 NE13      30.15R
ANKENY *       MOSUNNY   75  66  73 VRB5      30.14S
BOONE *        CLOUDY    72  64  78 E14       30.14S
CHARITON *     SUNNY     75  68  78 SE8       30.14R
DES MOINES     PTSUNNY   77  66  68 SE8       30.12S
GRINNELL*      MOSUNNY   73  64  73 SE8       30.18R
KNOXVILLE *    SUNNY     75  64  69 S10       30.13S
MARSHALLTOWN   MOSUNNY   71  66  84 NE10      30.17R
NEWTON *       SUNNY     73  64  73 SE10      30.15S
PELLA *        SUNNY     75  63  66 S7        30.16R
PERRY *        PTSUNNY   77  65  65 E8        30.13S
$$

IAZ004>006-015-016-023>025-035-036-231600-
   NORTH CENTRAL IOWA

CITY           SKY/WX    TMP DP  RH WIND       PRES   REMARKS
ALGONA *       PTSUNNY   68  63  83 SE16G23   30.12S
CLARION *      MOSUNNY   66  63  88 SE17G24   30.14F FOG
ESTHERVILLE    CLOUDY    67  62  84 SE18      30.10S
FORT DODGE *   CLOUDY    67  63  87 E14       30.14F
MASON CITY     CLOUDY    64  63  96 SE13      30.13F
FOREST CITY *  FAIR      68  64  88 S12       30.12R
WEBSTER CITY * CLOUDY    66  66 100 E15       30.14R
IOWA FALLS *   CLOUDY    64  63  96 NE6       30.19S
$$

IAZ007>011-017>019-026>030-037>042-050>054-066-231600-
   NORTHEAST IOWA

CITY           SKY/WX    TMP DP  RH WIND       PRES   REMARKS
CEDAR RAPIDS   PTSUNNY   72  63  73 SE8       30.18R
CHARLES CITY * FAIR      63  61  94 S15       30.15F FOG
CLINTON *      PTSUNNY  N/A N/A N/A SE6       30.20
DECORAH *      FAIR      64  64 100 S8        30.15F
DUBUQUE        CLOUDY    66  60  81 S8        30.20S
MONTICELLO *   FAIR      70  64  83 CALM      30.19S
OELWEIN *      FAIR      68  63  83 S3        30.20S
WATERLOO       PTSUNNY   67  63  87 N5        30.19R
$$

IAZ064-065-067-068-078-231600-
   EAST CENTRAL IOWA

CITY           SKY/WX    TMP DP  RH WIND       PRES   REMARKS
DAVENPORT      PTSUNNY   71  61  70 SE5       30.20F
IOWA CITY      LGT RAIN  71  63  75 SE5       30.19R
MT. PLEASANT * CLOUDY    73  61  64 SE7       30.18R
MUSCATINE *    PTSUNNY   72  63  73 E6        30.19R
QUAD CITIES    PTSUNNY   73  62  68 E3        30.18S
$$

IAZ062-063-075>077-085>089-095>099-231600-
   SOUTHEAST IOWA

CITY           SKY/WX    TMP DP  RH WIND       PRES   REMARKS
BURLINGTON     SUNNY     75  63  66 SE6       30.17R
FAIRFIELD *    CLOUDY    73  63  68 SE10      30.16R
FORT MADISON * MOSUNNY   73  63  68 SE8       30.18S
KEOKUK *         N/A     75  63  64 SE8       30.16S
OSKALOOSA *    FAIR      75  62  65 S9        30.17R
CENTERVILLE *    N/A     77  68  73 S5        30.17R
OTTUMWA        MOSUNNY   76  63  64 S12       30.16R
WASHINGTON *   MOSUNNY   73  64  73 SE8       30.18R
$$

ABBREVIATIONS USED IN REMARKS
   TC - TEMPERATURES IN CELSIUS
  WCI - WIND CHILL INDEX
   HX - HEAT INDEX
  VSB - VISIBILITY
$$





USA.gov is the U.S. government's official web portal to all federal, state and local government web resources and services.